Location: Baumgarten
(49.0970°N, 12.7493°E)
Time: 08:35:04
(UTC+00:00)

Cosmos 773 Rocket - Pass Details

Date: 05 July 2020
Orbit: 746 x 776 km, 74.1° (Epoch: 05 August)

Event Time Altitude Azimuth Distance (km) Brightness Sun altitude
Rises 20:50:26 0° 203° (SSW) 3,243 6.9 -11.4°
Reaches altitude 10° 20:52:48 10° 204° (SSW) 2,321 6.2 -11.7°
Maximum altitude 20:58:05 85° 293° (WNW) 786 4.1 -12.1°
Drops below altitude 10° 21:03:25 10° 22° (NNE) 2,332 7.0 -12.6°
Sets 21:05:48 0° 24° (NNE) 3,260 7.8 -12.8°
